METAR LSZS 261620Z 21014KT 9999 BKN065 20/09 Q1018 RMK T=
Diese Daten sind ohne Gewähr und dürfen nicht für die Flugvorbereitung verwendet werden.
Information contained in this website shall not be used for flight operation purposes.